www.pogodaiklimat.ru

Погода и климат >> Архив погоды >> Россия >> Чувашия >> Чебоксары


АРХИВ ПОГОДЫ в Чебоксарах

Время (UTC), дата Ветер
(напр.,м/с)
 
Видим.   Явления Облачность Т
(С)
Тd
(С)
f
(%)
Тe
(С)
Тes
(С)
Комфортность P
(гПа)
Po
(гПа)
Тmin
(С)
Tmax
(С)
R
(мм)
R24
(мм)
S
(см)
12 11.02 Ю 5-6
{8}
10 км слаб. снег 10/8 300 м
[Sc As op]
-7.4 -10.4 79 -15 -15 по сезону 1023.2 1002.0
15 11.02 Ю 4-5
{7}
10 км {снег} 9/4 600 м
[Sc Ac trans]
-7.6 -10.2 82 -14 -14 по сезону 1024.3 1003.0 -7.0 0.0
18 11.02 ЮЗ 4-5
{6}
10 км {снег} 10/8 600 м
[Sc As op]
-6.2 -8.5 84 -13 -13 по сезону 1024.2 1003.2
21 11.02 Ю 4-5
{6}
10 км 10/8 300 м
[Sc As op]
-5.4 -8.3 80 -12 -12 по сезону 1024.0 1003.0
00 12.02 Ю 4-6
{8}
10 км 10/8 300 м
[Sc As op]
-5.6 -9.0 77 -12 -12 по сезону 1024.3 1003.2
03 12.02 Ю 4-5
{7}
10 км 10/8 300 м
[Sc As op]
-5.7 -8.3 82 -12 -12 по сезону 1024.0 1002.9 -7.9 53
06 12.02 Ю 6-7
{8}
10 км 10/8 300 м
[Sc As op]
-5.6 -8.6 79 -13 -13 по сезону 1023.5 1002.5
09 12.02 Ю 6-8
{11}
10 км позёмок 10/8 1000 м
[Sc As op]
-5.5 -9.7 72 -13 -13 по сезону 1024.0 1002.9
12 12.02 Ю 6-8
{10}
10 км позёмок 10/8 1000 м
[Sc As op]
-5.6 -10.3 69 -13 -13 по сезону 1024.0 1002.9
15 12.02 Ю 6-8
{10}
10 км позёмок 10/8 1000 м
[Sc As op]
-5.5 -9.7 72 -13 -13 по сезону 1024.2 1003.1 -5.3
18 12.02 Ю 8-10
{12}
10 км позёмок 10/8 1000 м
[Sc As op]
-4.7 -10.4 64 -13 -13 по сезону 1023.8 1002.8
21 12.02 Ю 7-9
{11}
10 км позёмок 10/8 1000 м
[Sc As op]
-4.9 -9.8 68 -13 -13 по сезону 1023.8 1002.8
00 13.02 ЮВ 6-8
{10}
10 км позёмок 10/8 1000 м
[Sc As op]
-6.5 -12.0 65 -14 -14 по сезону 1023.6 1002.5
03 13.02 Ю 5-7
{11}
10 км позёмок 9/8 1000 м
[Sc Ac trans]
-6.3 -12.3 62 -13 -13 по сезону 1022.1 1001.0 -6.6 51
06 13.02 Ю 7-9
{11}
10 км позёмок 8/6 1000 м
[Sc Ac trans]
-7.8 -13.9 62 -16 -16 по сезону 1021.7 1000.4 -7.9
09 13.02 Ю 6-9
{11}
10 км позёмок 10/6 1000 м
[Sc Ac trans Cs]
-7.6 -13.6 62 -16 -15 по сезону 1020.4 999.2
12 13.02 ЮВ 6-8
{11}
10 км позёмок 10/5 1000 м
[Sc As trans]
-8.3 -13.0 69 -16 -16 по сезону 1018.0 996.9
15 13.02 Ю 11-15
{15}
200 м сильн. снег {метель} ?/? -6.3 -8.2 86 -17 -17 по сезону 1014.2 993.2 -6.2 1
18 13.02 Ю 7-10
{16}
10 км позёмок {снег} 10/8 200 м
[Sc As op]
-5.3 -7.4 85 -14 -14 по сезону 1014.2 993.3
21 13.02 Ю 8-10
{15}
4000 м позёмок 10/8 200 м
[Sc As op]
-3.5 -6.3 81 -12 -12 по сезону 1014.3 993.5
00 14.02 Ю 4-5
{12}
4000 м слаб. снег {метель} 10/10 200 м
[Frnb Ns]
-3.4 -5.1 88 -10 -10 по сезону 1014.2 993.5
03 14.02 ЮЗ 4-5
{7}
4000 м слаб. снег 10/10 200 м
[Frnb Ns]
-1.7 -3.1 90 -8 -8 тепло 1014.2 993.6 -6.3 1 50
06 14.02 З 5-7
{7}
10 км {снег} 10/6 600 м
[Cb calv As op]
-2.4 -5.3 80 -9 -9 тепло 1016.4 995.7
09 14.02 З 2-4
{7}
10 км слаб. ливневой снег 10/6 300 м
[Cb cap As op]
-2.3 -5.2 80 -6 -6 тепло 1017.6 996.8
12 14.02 СЗ 5-8
{8}
10 км слаб. ливневой снег 10/8 300 м
[Cb cap As op]
-2.2 -5.4 79 -9 -9 по сезону 1018.7 997.9
15 14.02 СЗ 5-8
{9}
10 км слаб. ливневой снег 10/8 300 м
[Cb cap As op]
-3.9 -6.5 82 -11 -11 по сезону 1020.8 999.9 -1.5 0.4
18 14.02 СЗ 6-9
{10}
10 км {ливн. осадки} 10/6 600 м
[Cb calv As op]
-6.2 -10.2 73 -14 -14 по сезону 1022.2 1001.1
21 14.02 СЗ 4-7
{9}
10 км 10/6 600 м
[Cb calv As op]
-6.4 -10.0 76 -13 -13 по сезону 1022.6 1001.4
00 15.02 З 5-6
{8}
10 км 8/6 600 м
[Cb calv Ac trans]
-7.3 -10.3 79 -15 -15 по сезону 1022.2 1000.9
03 15.02 ЮЗ 4-5
{7}
10 км 8/6 600 м
[Cb calv Ac trans]
-7.6 -10.6 79 -14 -14 по сезону 1020.0 998.9 -7.7 0.0 50
06 15.02 Ю 8-10
{10}
10 км позёмок 9/6 600 м
[Cb calv Ac trans]
-6.4 -9.2 80 -15 -15 по сезону 1015.6 994.6
09 15.02 Ю 9-13
{13}
2000 м снег {ливн. осадки} 10/8 600 м
[Sc As op]
-5.1 -7.2 85 -14 -14 по сезону 1010.0 989.2
12 15.02 ЮЗ 9-12
{14}
1000 м сильн. снег {ливн. осадки} 10/10 200 м
[Frnb Ns]
-4.3 -6.2 87 -13 -13 по сезону 1005.0 984.4
15 15.02 З 9-12
{13}
1000 м сильн. снег {метель} 10/10 200 м
[Frnb Ns]
-3.0 -5.0 86 -12 -12 по сезону 1001.7 981.2 -3.0 1
18 15.02 З 6-10
{11}
4000 м слаб. снег {метель} 10/10 300 м
[Frnb Ns]
-0.3 -2.7 84 -7 -7 тепло 1000.2 980.0
21 15.02 СЗ 7-11
{12}
10 км {снег, дождь} 10/8 300 м
[Sc As op]
+0.7 -2.3 80 -6 -6 тепло 1000.1 979.9
00 16.02 З 6-10
{11}
10 км в посл. час снег {дождь} 10/8 300 м
[Sc As op]
+0.4 -1.8 85 -6 -6 тепло 1000.0 979.8
03 16.02 СЗ 6-9
{11}
10 км {снег} 10/8 300 м
[Sc As op]
+0.3 -1.9 85 -6 -6 тепло 1000.0 979.8 -3.1 0.5 54
06 16.02 СЗ 5-8
{11}
10 км слаб. снег 10/8 300 м
[Sc As op]
+0.4 -1.5 87 -6 -6 тепло 1000.4 980.3
09 16.02 СЗ 6-9
{10}
2000 м снег 10/8 200 м
[Sc As op]
+0.6 -1.6 85 -6 -6 тепло 1000.6 980.5
12 16.02 СЗ 7-10
{11}
10 км в посл. час снег 8/6 600 м
[Sc Ac trans]
+0.9 -2.1 80 -6 -6 тепло 1002.7 982.6
15 16.02 СЗ 6-9
{14}
10 км {снег} 8/8 1000 м
[Cb calv]
-0.4 -4.8 72 -7 -7 тепло 1005.6 985.3 +1.2 0.9
18 16.02 СЗ 6-9
{11}
10 км {снег} 6/0
[As trans]
-1.5 -7.5 64 -8 -8 тепло 1006.7 986.3
21 16.02 СЗ 3-4
{8}
10 км 6/0
[Ac trans]
-2.1 -8.4 62 -7 -7 тепло 1006.6 986.2
00 17.02 ЮЗ 4-4
{6}
10 км 4/0
[Ac trans]
-6.6 -10.3 75 -13 -13 по сезону 1004.6 983.9
03 17.02 Ю 7-9
{9}
10 км 4/0
[Ac trans]
-4.7 -8.3 76 -13 -13 по сезону 1000.0 979.5 -6.9 53
06 17.02 Ю 8-10
{10}
10 км 9/8 600 м
[Cb calv Ac trans]
-3.6 -6.8 78 -12 -12 по сезону 995.2 974.9
09 17.02 ЮЗ 7-9
{11}
10 км в посл. час ливневой снег 10/8 600 м
[Cb calv As op]
-2.7 -5.0 84 -10 -10 по сезону 991.6 971.5
12 17.02 ЮЗ 5-7
{11}
4000 м снежные зёрна {ливн. осадки} [диам. гололёда 2 мм] 10/10 200 м
[St]
-1.8 -2.9 92 -8 -8 по сезону 988.2 968.2
15 17.02 СЗ 6-8
{9}
4000 м слаб. ливневой снег [диам. гололёда 2 мм] 10/10 300 м
[Cb cap]
-0.3 -2.1 88 -7 -7 тепло 987.0 967.1 -0.2 0.7
18 17.02 СЗ 6-9
{11}
10 км слаб. ливневой снег [диам. гололёда 2 мм] 10/8 600 м
[Cb cap As op]
-0.4 -3.8 78 -7 -7 тепло 986.6 966.7
21 17.02 СЗ 6-9
{10}
10 км {ливн. осадки} 10/8 600 м
[Cb calv As op]
-0.9 -4.1 79 -8 -8 тепло 986.3 966.4
00 18.02 СЗ 6-10
{11}
4000 м слаб. снег 10/8 1000 м
[Sc As op]
-1.2 -3.5 84 -8 -8 тепло 986.5 966.6
03 18.02 СЗ 8-11
{13}
4000 м {снег} 10/8 1000 м
[Sc As op]
-1.0 -3.6 82 -9 -9 тепло 988.1 968.1 -1.2 0.4 55
06 18.02 С 10-17
{18}
2000 м слаб. снег {метель} 10/8 300 м
[Sc As op]
-2.3 -4.8 83 -11 -11 по сезону 991.4 971.2 -2.4
09 18.02 С 11-16
{18}
2000 м ливневой снег 10/8 200 м
[Cb cap As op]
-4.0 -7.0 80 -14 -14 по сезону 996.0 975.6

 

Местоположение метеостанции Чебоксары (Чувашия, Россия): широта 56.08 долгота 47.33 высота над уровнем моря 163 м.

В архиве по умолчанию представлена погода в Чебоксарах за последнюю неделю. Архивные данные за месяц целиком и за предыдущие месяцы, начиная с января 2011 года, Вы можете получить, выбрав интересующий диапазон дат из раскрывающегося списка и нажав кнопку "Ввод!".


*Определитесь, кто Вы:
робот инопланетянин человек

Внимание! Время в таблицах - всемирное. Для получения местного времени необходимо прибавить поправку, которая равна 3 ч.

Смотрите также архив погоды в соседних городах и на ближайших метеорологических станциях:

Погода в Козьмодемьянске (Марий-Эл, Россия) (54 км)
Погода в Канаше (Чувашия, Россия) (63 км)
Погода в Йошкар-Оле (Марий-Эл, Россия) (67 км)
Погода в Вязовых (Татарстан, Россия) (80 км)
Погода в Больших Кайбицах (Татарстан, Россия) (92 км)
Погода в Санчурске (Кировская область, Россия) (100 км)
Погода в Морках (Марий-Эл, Россия) (111 км)
Погода в Батырево (Чувашия, Россия) (114 км)
Погода в Порецком (Чувашия, Россия) (118 км)
Погода в Казани (Татарстан, Россия) (123 км)

Пояснения к столбцам:

Ветер - указаны скорость ветра в м/с - средняя за 10 мин, порывы в срок и между сроками (в фигурных скобках) и направление, откуда дует ветер: С - северный, СВ - северо-восточный, В - восточный, ЮВ - юго-восточный, Ю - южный, ЮЗ - юго-западный, З - западный, СЗ - северо-западный.
Видимость - горизонтальная дальность видимости в метрах или километрах. При видимости от 1 до 10 км при отсутствии осадков обычно наблюдается дымка, при ухудшении видимости до 1 км и менее - туман. В сухую погоду видимость может ухудшаться дымом, пылью или мглою.
Явления - указаны атмосферные явления, наблюдавшиеся в срок или в последний час перед сроком; фигурными скобками обозначены явления, наблюдавшиеся между сроками (за 1-3 часа до срока); квадратными скобками обозначены град или гололедные отложения с указанием их диаметра в мм.
Облачность - указаны через наклонную черту общая и нижняя облачность в баллах и высота нижней границы облаков в метрах; квадратными скобками обозначены формы облаков: Ci - перистые, Cs - перисто-слоистые, Cc - перисто-кучевые, Ac - высококучевые, As - высокослоистые, Sc - слоисто-кучевые, Ns - слоисто-дождевые, Cu - кучевые, Cb - кучево-дождевые. Подробнее классификацию облаков см. в Атласе облаков (PDF).
T - Температура воздуха - температура, измеренная на высоте 2 м над землей.
Td - Температура точки росы - температура, при понижении до которой содержащийся в воздухе водяной пар достигнет насыщения.
f - Относительная влажность воздуха - влажноcть воздуха, измеренная на высоте 2 м над землей.
Te - Эффективная температура - температура, которую ощущает одетый по сезону человек в тени. Характеристика душности погоды. При расчете учитывается влияние влажности воздуха и скорости ветра на теплоощущения человека.
Tes - Эффективная температура на солнце - температура, которую ощущает человек, с поправкой на солнечный нагрев. Характеристика знойности погоды. Зависит от высоты солнца над горизонтом, облачности и скорости ветра. Ночью, в пасмурную погоду, а также при ветре 12 м/с и более поправка равна нулю.
P - Атмосферное давление - приведенное к уровню моря атмосферное давление.
Po - Атмосферное давление - измеренное на уровне метеостанции атмосферное давление.
Tmin - Минимальная температура - минимум температуры воздуха на высоте 2 м над землей.
Tmax - Максимальная температура - максимум температуры воздуха на высоте 2 м над землей.
R - Количество осадков - Количество выпавших осадков за период времени, мм. При наведении курсора мыши на число - период времени, за который выпало указанное количество осадков.
R24 - Количество осадков - Количество выпавших осадков за 24 часа, мм.
S - Снежный покров - Высота снежного покрова, см. При наведении курсора мыши на число - состояние снежного покрова и степень покрытия местности в баллах.